Address 0xe41977a1db8646a3ca3eed2284ef168055a39f0d 1

 
 
Txn Hash Method
Block
From
To
Value [Txn Fee]
0x7bf1d367fc216ca2b22aa0d57cbac0e1deaf0de06b7623b9860f7507b5735c0b0x5866cc8e112538612021-09-26 15:03:1747 mins ago0xe41977a1db8646a3ca3eed2284ef168055a39f0dOUT 0x712e047aaa04725f8f6690207499906eb7bdb1eb0 BNB0.000282875
0xcb4ecf3c100fdef4dd0f8e0341ef40d2d4c6f06774502e8b1eefbe5af04b44840x5866cc8e112535772021-09-26 14:49:051 hr 1 min ago0xe41977a1db8646a3ca3eed2284ef168055a39f0dOUT 0x712e047aaa04725f8f6690207499906eb7bdb1eb0 BNB0.000349979
0xdbaa1ebbe8ad886a9f23afc28c7a6737523be7990e08cf8d3466cc3a4d08b9950x5866cc8e112530102021-09-26 14:20:211 hr 30 mins ago0xe41977a1db8646a3ca3eed2284ef168055a39f0dOUT 0x712e047aaa04725f8f6690207499906eb7bdb1eb0 BNB0.00027403
0xa4dbdd3d14f8ebbe9fefb3ab6ca85ed6d00779a3990025e7e851d9ff661cd5c20x5866cc8e112511242021-09-26 12:45:403 hrs 4 mins ago0xe41977a1db8646a3ca3eed2284ef168055a39f0dOUT 0x712e047aaa04725f8f6690207499906eb7bdb1eb0 BNB0.00024086
0x97ca061c18910348baf071804d5c136b9a84849a47148c00d77fe34d39ea74ae0x5866cc8e112503402021-09-26 12:06:153 hrs 44 mins ago0xe41977a1db8646a3ca3eed2284ef168055a39f0dOUT 0x712e047aaa04725f8f6690207499906eb7bdb1eb0 BNB0.000508879
0x5ff6652bee9d4c2e3e760ad43928d14b22eff85c97b29bfa8938db9248fae4530x5866cc8e112485462021-09-26 10:35:145 hrs 15 mins ago0xe41977a1db8646a3ca3eed2284ef168055a39f0dOUT 0x712e047aaa04725f8f6690207499906eb7bdb1eb0 BNB0.000355135
0xfdb9c079808f8fe0f242e58bf2a667dfc2dd618343bef5ef1b786d6651eb606a0x5866cc8e112476432021-09-26 9:49:376 hrs ago0xe41977a1db8646a3ca3eed2284ef168055a39f0dOUT 0x712e047aaa04725f8f6690207499906eb7bdb1eb0 BNB0.00135277834
0x583c9558d75315f7d86aeb2050930d59e2df60d4e1465e2cdf5921bf2b77bfe90x5866cc8e112472582021-09-26 9:30:086 hrs 20 mins ago0xe41977a1db8646a3ca3eed2284ef168055a39f0dOUT 0x712e047aaa04725f8f6690207499906eb7bdb1eb0 BNB0.00149702
0x4893fcc3c04d48f4d98d8f7920a3abd9a7eb05244e3380b4847c9b29486db1020x5866cc8e112458612021-09-26 8:20:097 hrs 30 mins ago0xe41977a1db8646a3ca3eed2284ef168055a39f0dOUT 0x712e047aaa04725f8f6690207499906eb7bdb1eb0 BNB0.00024039
0xa2f18574f10208b25cda11958b16328b5766dd3482785dbaee950502f0e6218c0x5866cc8e112457342021-09-26 8:13:487 hrs 36 mins ago0xe41977a1db8646a3ca3eed2284ef168055a39f0dOUT 0x712e047aaa04725f8f6690207499906eb7bdb1eb0 BNB0.000376630345
0xa5a4e3d07fef338a005050cb7ed7257f626a2241c9dd8930df9dc617181b73ac0x5866cc8e112454952021-09-26 8:01:517 hrs 48 mins ago0xe41977a1db8646a3ca3eed2284ef168055a39f0dOUT 0x712e047aaa04725f8f6690207499906eb7bdb1eb0 BNB0.000364195
0xebe17b6bd8773986776b13208eb291cff2c64dcae8796e0f9f7cb5e9eb7b25770x5866cc8e112446212021-09-26 7:17:518 hrs 32 mins ago0xe41977a1db8646a3ca3eed2284ef168055a39f0dOUT 0x712e047aaa04725f8f6690207499906eb7bdb1eb0 BNB0.000274435
0x6695bfe0e3cbcd3e1d8356799ce65213ee7b9495be935b261f3d32f2056c849b0x5866cc8e112421632021-09-26 5:13:0610 hrs 37 mins ago0xe41977a1db8646a3ca3eed2284ef168055a39f0dOUT 0x712e047aaa04725f8f6690207499906eb7bdb1eb0 BNB0.000249995
0x36458e5887313aeb88d501a8c3a729e7f567981d965bdf5f0b1e7c0904e677c30x5866cc8e112383422021-09-26 2:00:3713 hrs 49 mins ago0xe41977a1db8646a3ca3eed2284ef168055a39f0dOUT 0x712e047aaa04725f8f6690207499906eb7bdb1eb0 BNB0.0002546889
0xd96b13820eb7ee84897aa4d9310bd5477006a0e9bdb41b904802893577d960ad0x5866cc8e112371252021-09-26 0:59:4514 hrs 50 mins ago0xe41977a1db8646a3ca3eed2284ef168055a39f0dOUT 0x712e047aaa04725f8f6690207499906eb7bdb1eb0 BNB0.00139228
0x947c4a084a8cc2582708064e18cf2df45c1feb0fb1bbdd7ede20915115178da40x5866cc8e112353662021-09-25 23:31:4716 hrs 18 mins ago0xe41977a1db8646a3ca3eed2284ef168055a39f0dOUT 0x712e047aaa04725f8f6690207499906eb7bdb1eb0 BNB0.000493317
0x9272f93aadba027928212b0bca81c4420cd0a0a0ea993a2ee5bda7203e24c2c10x834f0655112340022021-09-25 22:23:3317 hrs 26 mins ago0xe41977a1db8646a3ca3eed2284ef168055a39f0dOUT 0xd14abc7bc0c531ad611d01ddf951dbb5a4cb09e40 BNB0.000315475
0x200eb2ac83ca0a8810a4c3298c96ad162224ceabcab5ee7ad2fab3e5d8f67ed80x5866cc8e112332362021-09-25 21:45:1518 hrs 5 mins ago0xe41977a1db8646a3ca3eed2284ef168055a39f0dOUT 0x712e047aaa04725f8f6690207499906eb7bdb1eb0 BNB0.000216575
0x7b6a1799e52f8c0b8df0a4cfe2b147e4caff437cc5299948e2b66c272bfeacc10x5866cc8e112320102021-09-25 20:43:5719 hrs 6 mins ago0xe41977a1db8646a3ca3eed2284ef168055a39f0dOUT 0x712e047aaa04725f8f6690207499906eb7bdb1eb0 BNB0.000249925
0xdf79a1070462fa10f851227cd7fb87838d3e9ad701db63dfce17ad8f77c376e20x5866cc8e112308102021-09-25 19:43:4820 hrs 6 mins ago0xe41977a1db8646a3ca3eed2284ef168055a39f0dOUT 0x712e047aaa04725f8f6690207499906eb7bdb1eb0 BNB0.000249815
0x1e58b4494e5a24f54e022e9c2af2d1d1240c97dcb99ee649a91a9f1457084a050x5866cc8e112300742021-09-25 19:07:0020 hrs 43 mins ago0xe41977a1db8646a3ca3eed2284ef168055a39f0dOUT 0x712e047aaa04725f8f6690207499906eb7bdb1eb0 BNB0.000444665
0x24b9fa747f9f8df7b5effa7288a34c2dd7956290ac57dfe6a11338df60f2c2620x5866cc8e112264582021-09-25 16:03:2923 hrs 46 mins ago0xe41977a1db8646a3ca3eed2284ef168055a39f0dOUT 0x712e047aaa04725f8f6690207499906eb7bdb1eb0 BNB0.000216745
0xee18f4651d2e9e5ae867a3aa6f3884dcf6389036904c4f02a30d04aea111dfe50x5866cc8e112254032021-09-25 15:10:431 day 39 mins ago0xe41977a1db8646a3ca3eed2284ef168055a39f0dOUT 0x712e047aaa04725f8f6690207499906eb7bdb1eb0 BNB0.000249755
0x341995ae074f3bd62fb900ba5c46f97d36ae65a4ba09b7d2cf6748eac0cbf39f0x5866cc8e112242952021-09-25 14:15:191 day 1 hr ago0xe41977a1db8646a3ca3eed2284ef168055a39f0dOUT 0x712e047aaa04725f8f6690207499906eb7bdb1eb0 BNB0.000337265
0xfef857fa6d6472e04ace7c7945b36f822618adc1b4c5f0ced459640b4372b7f90x5866cc8e112217932021-09-25 12:08:121 day 3 hrs ago0xe41977a1db8646a3ca3eed2284ef168055a39f0dOUT 0x712e047aaa04725f8f6690207499906eb7bdb1eb0 BNB0.000207465
[ Download CSV Export 
Parent Txn Hash Block From To Value
Loading

Contract Name:
0 BNB

Compiler Version
0

Optimization Enabled:
0 BNB

Other Settings:
-NA-
Block Transaction Gas Used Reward
Age Block Fee Address BC Fee Address Voting Power Jailed Incoming
Block Uncle Number Difficulty Gas Used Reward
Loading
Loading
Make sure to use the "Vote Down" button for any spammy posts, and the "Vote Up" for interesting conversations.